TimeEDT,TemperatureF,Dew PointF,Humidity,Sea Level PressureIn,VisibilityMPH,Wind Direction,Wind SpeedMPH,Gust SpeedMPH,PrecipitationIn,Events,Conditions,WindDirDegrees,DateUTC
12:53 AM,59.0,52.0,78,30.13,10.0,South,6.9,-,N/A,,Clear,180,2013-04-08 04:53:00
1:53 AM,57.0,53.1,87,30.13,10.0,South,5.8,-,N/A,,Clear,190,2013-04-08 05:53:00
2:53 AM,55.9,53.1,90,30.12,10.0,SSW,3.5,-,N/A,,Clear,200,2013-04-08 06:53:00
3:53 AM,53.1,51.1,93,30.11,10.0,Calm,Calm,-,N/A,,Clear,0,2013-04-08 07:53:00
4:53 AM,52.0,51.1,97,30.12,6.0,Calm,Calm,-,N/A,,Clear,0,2013-04-08 08:53:00
5:29 AM,53.6,51.8,94,30.14,1.5,SSW,3.5,-,N/A,,Clear,210,2013-04-08 09:29:00
5:39 AM,51.8,50.0,94,30.14,0.8,SSW,3.5,-,N/A,,Mist,210,2013-04-08 09:39:00
5:53 AM,51.1,50.0,96,30.13,0.2,Calm,Calm,-,N/A,Fog,Fog,0,2013-04-08 09:53:00
6:01 AM,51.8,50.0,94,30.14,1.0,Calm,Calm,-,N/A,,Mist,0,2013-04-08 10:01:00
6:13 AM,51.8,50.0,94,30.15,0.2,Calm,Calm,-,N/A,Fog,Fog,0,2013-04-08 10:13:00
6:24 AM,51.8,50.0,94,30.15,1.0,Calm,Calm,-,N/A,,Mist,0,2013-04-08 10:24:00
6:27 AM,51.8,50.0,94,30.15,5.0,South,3.5,-,N/A,,Mostly Cloudy,190,2013-04-08 10:27:00
6:36 AM,50.0,48.2,94,30.16,8.0,Calm,Calm,-,N/A,,Scattered Clouds,0,2013-04-08 10:36:00
6:44 AM,51.8,50.0,94,30.16,2.0,Calm,Calm,-,N/A,,Mostly Cloudy,0,2013-04-08 10:44:00
6:47 AM,51.8,50.0,94,30.16,0.8,Calm,Calm,-,N/A,,Mist,0,2013-04-08 10:47:00
6:53 AM,51.1,50.0,96,30.15,0.2,South,3.5,-,N/A,Fog,Fog,180,2013-04-08 10:53:00
7:11 AM,48.2,48.2,100,30.17,0.5,Calm,Calm,-,N/A,Fog,Fog,0,2013-04-08 11:11:00
7:26 AM,51.8,51.8,100,30.18,1.2,SSW,3.5,-,N/A,,Mostly Cloudy,200,2013-04-08 11:26:00
7:33 AM,51.8,50.0,94,30.18,0.5,South,4.6,-,N/A,Fog,Fog,180,2013-04-08 11:33:00
7:48 AM,53.6,53.6,100,30.19,0.2,SW,3.5,-,N/A,Fog,Fog,220,2013-04-08 11:48:00
7:53 AM,54.0,53.1,97,30.17,0.2,Calm,Calm,-,N/A,Fog,Fog,0,2013-04-08 11:53:00
8:10 AM,53.6,53.6,100,30.19,0.2,SSW,3.5,-,N/A,Fog,Fog,200,2013-04-08 12:10:00
8:20 AM,55.4,55.4,100,30.19,0.2,SSW,4.6,-,N/A,Fog,Fog,200,2013-04-08 12:20:00
8:29 AM,55.4,55.4,100,30.19,1.0,SSW,4.6,-,N/A,,Mist,200,2013-04-08 12:29:00
8:33 AM,55.4,55.4,100,30.20,3.0,SSW,4.6,-,N/A,,Mostly Cloudy,200,2013-04-08 12:33:00
8:53 AM,57.0,55.9,96,30.18,6.0,SSW,4.6,-,N/A,,Mostly Cloudy,210,2013-04-08 12:53:00
9:00 AM,57.2,55.4,94,30.20,8.0,SSW,4.6,-,N/A,,Scattered Clouds,210,2013-04-08 13:00:00
9:53 AM,64.9,55.9,73,30.18,10.0,WSW,8.1,-,N/A,,Partly Cloudy,240,2013-04-08 13:53:00
10:53 AM,71.1,54.0,55,30.19,10.0,SW,11.5,18.4,N/A,,Partly Cloudy,220,2013-04-08 14:53:00
11:53 AM,73.9,54.0,50,30.17,10.0,SW,12.7,18.4,N/A,,Mostly Cloudy,220,2013-04-08 15:53:00
12:02 PM,73.4,53.6,50,30.18,10.0,WSW,9.2,-,N/A,,Scattered Clouds,250,2013-04-08 16:02:00
12:53 PM,75.9,48.9,38,30.16,10.0,WSW,12.7,-,N/A,,Partly Cloudy,240,2013-04-08 16:53:00
1:53 PM,77.0,51.1,40,30.12,10.0,SW,10.4,19.6,N/A,,Partly Cloudy,220,2013-04-08 17:53:00
2:53 PM,79.0,50.0,36,30.10,10.0,SW,6.9,17.3,N/A,,Mostly Cloudy,230,2013-04-08 18:53:00
3:53 PM,78.1,48.9,36,30.08,10.0,SW,10.4,23.0,N/A,,Scattered Clouds,220,2013-04-08 19:53:00
4:53 PM,80.1,48.9,34,30.07,10.0,SSW,11.5,19.6,N/A,,Clear,210,2013-04-08 20:53:00
5:53 PM,78.1,50.0,37,30.07,10.0,South,11.5,-,N/A,,Partly Cloudy,190,2013-04-08 21:53:00
6:53 PM,77.0,51.1,40,30.07,10.0,SSW,8.1,-,N/A,,Clear,210,2013-04-08 22:53:00
7:53 PM,72.0,51.1,48,30.08,10.0,South,5.8,-,N/A,,Clear,180,2013-04-08 23:53:00
8:53 PM,70.0,53.1,55,30.10,10.0,South,16.1,-,N/A,,Clear,180,2013-04-09 00:53:00
9:53 PM,66.9,53.1,61,30.12,10.0,South,9.2,-,N/A,,Clear,180,2013-04-09 01:53:00
10:53 PM,64.9,55.0,70,30.12,10.0,South,8.1,-,N/A,,Clear,180,2013-04-09 02:53:00
11:53 PM,64.0,55.9,75,30.13,10.0,South,8.1,-,N/A,,Clear,180,2013-04-09 03:53:00